Terminal Aerodrome Forecast
Issued by NWS

Home | Current Version | Previous Version | Text Only | Print | Product List | Glossary On
Versions: 1 2 3 4 5 6 7 8 9 10 11 12 13 14 15 16 17 18
000
FTUS45 KRIW 281700
TAFCOD
TAF
KCOD 281720Z 2818/2918 23025G40KT P6SM FEW250 WS012/26060KT
     FM282200 24030G50KT P6SM FEW250 WS018/26060KT
     FM291000 23015G25KT P6SM SKC WS015/25040KT
      AMD LTD TO CLD VIS AND WIND=

USA.gov is the U.S. government's official web portal to all federal, state and local government web resources and services.